User: anonymous   Login
Location: Nairn
(57.5833°N, 3.8667°W)
Time: 04:54:32
(UTC+00:00)
Language:

Sich 1 Rocket - Orbit

View from above orbital plane
View from above orbital plane
View from above satellite
View from above satellite

Ground track
Ground track

The orbit data is extracted from the following two-line orbital elements,

1 23659U 95046C   20304.24562328 +.00000082 +00000-0 +79799-5 0  9996
2 23659 082.5313 243.0986 0025992 163.6104 309.2174 14.78349637356102
Epoch (UTC): 30 October 2020 05:53:41
Eccentricity: 0.0025992
inclination: 82.5313°
perigee height: 616 km
apogee height: 653 km
right ascension of ascending node: 243.0986°
argument of perigee: 163.6104°
revolutions per day: 14.78349637
mean anomaly at epoch: 309.2174°
orbit number at epoch: 35610

The dashed part of the orbit path shows where the satellite is in the earth's shadow,  

DLR